Location: Courcelles
(49.2596°N, 1.7419°E)
Time: 20:28:38
(UTC+00:00)

Cosmos 2100 Rocket - Pass Details

Date: 17 November 2025
Orbit: 954 x 1000 km, 82.9° (Epoch: 05 December)

Event Time Altitude Azimuth Distance (km) Brightness Sun altitude
Rises 16:34:47 0° 195° (SSW) 3,643 7.6 -4.6°
Reaches altitude 10° 16:37:18 10° 198° (SSW) 2,695 7.0 -5.0°
Maximum altitude 16:43:26 69° 281° (WNW) 1,022 4.4 -5.9°
Drops below altitude 10° 16:49:35 10° 6° (N) 2,696 6.1 -6.8°
Sets 16:52:07 0° 8° (N) 3,645 6.7 -7.2°
